Regional Weather Roundup
Issued by NWS

Home | Current Version | Previous Version | Graphics & Text | Print | Product List | Glossary On
Versions: 1 2 3 4 5 6 7 8 9 10 11 12 13 14 15 16 17 18 19 20 21 22 23 24 25 26 27 28 29 30 31 32 33 34 35 36 37 38 39 40 41 42 43 44 45 46 47 48 49 50
788
ASUS43 KLOT 232208
RWRIL

ILLINOIS REGIONAL WEATHER ROUNDUP
NATIONAL WEATHER SERVICE CHICAGO/ROMEOVILLE IL
500 PM CDT MON MAY 23 2016

NOTE: "FAIR" INDICATES FEW OR NO CLOUDS BELOW 12,000 FEET WITH NO
SIGNIFICANT WEATHER AND/OR OBSTRUCTIONS TO VISIBILITY.

* THESE STATIONS ARE NOT UNDER NWS QUALITY CONTROL. THEY ALSO MAY NOT
  REPORT WEATHER SUCH AS PRECIPITATION OR FOG.

ILZ001-002-007-009-015-016-024-232300-
NORTHWEST ILLINOIS

CITY           SKY/WX    TMP DP  RH WIND       PRES   REMARKS
MOLINE         SUNNY     84  44  24 S16G23    29.88F HX  82
STERLING*      CLOUDY    85  48  27 S8        29.91S HX  82
SAVANNA*       MOSUNNY   86  47  25 SW9       29.88F HX  83
$$

ILZ003-004-008-010-011-017-018-232300-
NORTH CENTRAL ILLINOIS

CITY           SKY/WX    TMP DP  RH WIND       PRES   REMARKS
ROCKFORD       PTSUNNY   84  46  26 S12       29.92F HX  82
FREEPORT*      CLOUDY    81  48  31 S13G22    29.92F HX  80
ROCHELLE*      SUNNY     85  43  22 S15       29.92S HX  82
DE KALB*       SUNNY     82  48  30 S13G21    29.93S HX  80
$$

ILZ005-006-012>014-019>023-232300-
NORTHEAST ILLINOIS

CITY           SKY/WX    TMP DP  RH WIND       PRES   REMARKS
CHICAGO-OHARE  MOSUNNY   81  41  24 S8        29.93S
CHICAGO-MIDWAY MOSUNNY   84  32  15 S9        29.93F HX  81
AURORA         SUNNY     83  47  28 SE12G17   29.92F HX  81
LANSING*       SUNNY     81  36  20 S8        29.94F
JOLIET*        SUNNY     83  47  27 SE8       29.93S HX  81
WAUKEGAN       SUNNY     72  41  32 SE12      29.93F
DUPAGE AIRPORT SUNNY     81  46  29 S9        29.92F HX  80
KANKAKEE*      SUNNY    N/A N/A N/A SE6       29.95R
WHEELING       SUNNY     80  38  22 SE12      29.94F
MORRIS*        SUNNY     85  40  21 E10       29.91S HX  82
ROMEOVILLE*    SUNNY     83  36  18 S9        29.93S HX  80
NORTHERLY ISL    N/A     68  42  38 NW3         N/A
NORTHERLY ISL    N/A     68  42  38 NW3         N/A
$$

LMZ740>746-232300-
SOUTHERN LAKE MICHIGAN

STATION/POSITION SKY/WX   TEMP    WIND        PRES    VSBY  WAVE
                          AIR SEA DIR/SP/G                  HT/PER
                          (F)     (DEG/KT/KT) (MB)    (MI)  (FT/S)
SOUTHERN BUOY              61 52  140/  4/  6 1014.1F         0
WILMETTE HARBOR            59 53  130/  8/ 10   N/A           1/ 2
HARRISON CRIB              71      90/ 14/ 14   N/A
BURNHAM HARBOR             69     310/  2/  9   N/A
CALUMET HARBOR             67      50/  5/  9 1013.7F
BURNS HARBOR               66      30/ 10/ 13 1014.6F
MICHIGAN CITY              67     340/ 11/ 11   N/A
MICHIGAN CITY 6N           63 59   50/  6/ 10   N/A           0
ST. JOSEPH                 64 61   40/  6/  8   N/A           0
$$

ILZ025>027-034>036-040-047-049-050-058-095>099-232300-
WEST-CENTRAL ILLINOIS

CITY           SKY/WX    TMP DP  RH WIND       PRES   REMARKS
QUINCY         CLOUDY    80  47  31 S13       29.92S
GALESBURG*     MOSUNNY   83  48  28 S10G18    29.91S HX  81
MACOMB*        CLOUDY    84  44  24 S15       29.93F HX  82
JACKSONVILLE*  SUNNY     84  45  25 S10       29.92F HX  82
PITTSFIELD*    SUNNY     82  49  32 S10G17    29.93F HX  81
$$

ILZ028>032-037-038-041>044-048-051>054-059>061-232300-
CENTRAL ILLINOIS

CITY           SKY/WX    TMP DP  RH WIND       PRES   REMARKS
PONTIAC        SUNNY     85  45  24 S8        29.93S HX  82
BLOOMINGTON    CLOUDY    83  50  31 S12G24    29.95S HX  81
DECATUR        CLOUDY    83  51  33 S12       29.94F HX  81
PEORIA         MOSUNNY   84  46  26 SW13G20   29.91F HX  82
LACON*         CLOUDY    83  46  27 SW7       29.91S HX  81
LINCOLN*       SUNNY     86  49  27 S8        29.93R HX  83
SPRINGFIELD    MOSUNNY   86  45  23 SW13      29.93S HX  83
TAYLORVILLE    MOSUNNY   84  49  29 SW9       29.94F HX  82
$$

ILZ033-039-045-046-055>057-062-063-232300-
EAST-CENTRAL ILLINOIS

CITY           SKY/WX    TMP DP  RH WIND       PRES   REMARKS
CHAMPAIGN      SUNNY     83  40  21 S16       29.95F HX  81
RANTOUL*       SUNNY     85  40  19 S12       29.95S HX  82
MATTOON        CLOUDY    78  47  33 S7        29.96S
PARIS*         SUNNY     80  44  28 S7        29.98S
$$

ILZ079-100>102-232300-
SOUTHWEST ILLINOIS

CITY           SKY/WX    TMP DP  RH WIND       PRES   REMARKS
ALTON          MOSUNNY   79  54  41 SE7       29.94F
BELLEVILLE     CLOUDY    82  53  36 VRB2      29.93F HX  81
CAHOKIA*       CLOUDY    83  51  33 S8        29.93F HX  81
SPARTA*        CLOUDY    81  53  37 S8        29.96F HX  80
$$

ILZ064>066-069>071-074>076-080>082-084>086-088>090-092>094-232300-
SOUTH-CENTRAL ILLINOIS

CITY           SKY/WX    TMP DP  RH WIND       PRES   REMARKS
CARBONDALE     CLOUDY    82  52  35 W9        29.95F HX  81
CAIRO*         CLOUDY    82  51  33 SW7       29.95S HX  81
EFFINGHAM*     CLOUDY    82  53  37 S3        29.97F HX  81
MARION         PTSUNNY   84  54  34 SW9       29.96F HX  83
MT. VERNON     MOSUNNY   84  54  34 SW6       29.96S HX  83
CENTRALIA*     MOSUNNY   82  55  39 S6        29.95S HX  82
SALEM*         PTSUNNY   84  50  31 S7        29.95S HX  82
METROPOLIS*    CLOUDY    84  56  38 CALM      29.96S HX  83
$$

ILZ067-068-072-073-078-083-087-091-232300-
SOUTHEAST ILLINOIS

CITY           SKY/WX    TMP DP  RH WIND       PRES   REMARKS
LAWRENCEVILLE  SUNNY     80  42  25 VRB5      29.97F
FLORA*         SUNNY     83  53  34 S5        29.96S HX  82
FAIRFIELD*     SUNNY     81  48  31 CALM      29.95S HX  80
HARRISBURG*    SUNNY     83  54  36 CALM      29.95F HX  82
ROBINSON*      SUNNY     78  48  33 S5        29.98S
CARMI*         SUNNY     81  50  33 S3        29.95F HX  80
$$

ABBREVIATIONS USED IN REMARKS
   TC - TEMPERATURE IN CELSIUS
  WCI - WIND CHILL INDEX
   HX - HEAT INDEX
  VSB - VISIBILITY
$$





USA.gov is the U.S. government's official web portal to all federal, state and local government web resources and services.